Dewpoint
63 62 63 62 62 63 63 64 64 63 63 63 62 62 63 65 63 64 64 64 65 65 65 64 64 64 64 64 63 63 63 62 63 64 63 62 63 64 64 63 63 62
62 63 62 63 63 63 64 64 63 63 63 63 63 63 64 64 63 63 64 64 64 64 64 64 64 64 64 63 63 63 63 63 63 62 64 64 64 64 64 64 64 63
62 63 62 62 63 63 63 64 64 63 64 63 63 63 63 64 63 63 63 63 64 64 64 64 64 64 64 63 63 63 63 63 63 63 63 64 64 63 63 64 64 63
61 61 61 62 62 62 63 63 63 63 63 63 63 63 63 63 63 63 62 63 63 64 64 63 64 64 63 63 63 63 63 63 63 64 64 64 64 63 63 63 63 62
60 61 61 61 62 62 63 62 62 63 62 63 63 63 63 63 63 63 63 63 63 63 63 63 63 64 63 63 63 63 63 63 64 63 63 63 63 63 63 62 62 63
60 60 60 61 61 61 62 62 62 62 62 63 63 63 63 63 63 63 63 63 64 64 63 63 63 63 63 63 63 63 63 63 64 63 62 62 62 62 61 62 62 63
58 59 61 61 61 62 61 62 62 62 62 63 62 62 63 63 63 62 62 62 62 63 62 62 62 62 63 63 62 63 62 63 62 62 62 62 62 61 62 62 62 62
56 57 58 60 61 62 62 61 61 62 62 62 62 62 63 62 62 63 62 62 62 62 62 62 62 62 62 62 62 62 62 63 62 62 61 62 63 62 62 62 64 62
54 55 56 58 59 62 62 62 62 62 62 62 62 63 63 62 62 62 62 62 62 62 61 61 61 61 62 62 61 61 62 62 63 62 62 63 63 62 62 62 63 63
51 52 54 55 56 59 60 61 62 62 62 62 62 62 62 63 62 62 62 62 61 61 61 61 61 61 61 61 61 61 61 61 62 63 63 63 63 62 61 62 62 63
50 50 51 52 53 55 57 59 61 62 63 61 62 62 62 62 62 62 61 61 61 61 60 61 61 61 61 61 62 62 62 62 63 62 63 63 63 63 63 62 63 63
49 49 50 51 52 53 54 57 59 61 61 62 62 61 62 62 62 62 61 61 61 61 60 60 61 61 61 61 62 62 63 63 63 63 63 63 63 63 63 63 63 62
48 48 49 50 51 52 53 55 58 60 60 61 61 61 61 61 61 61 61 61 61 61 61 61 60 61 61 61 62 62 62 62 63 63 63 63 62 60 61 62 63 62
47 48 48 49 50 51 52 54 57 59 60 60 61 61 61 61 61 61 61 61 61 60 61 61 61 61 61 61 61 61 62 62 62 63 62 63 62 61 61 62 63 63
46 47 48 48 49 50 51 52 55 58 60 60 60 61 61 61 61 61 61 60 60 61 60 60 60 60 61 61 61 61 61 62 62 62 62 62 62 61 61 62 61 62
46 46 46 47 48 49 50 51 53 56 58 59 60 60 60 61 60 61 60 60 60 60 60 60 60 60 58 54 56 60 61 61 62 62 62 62 61 61 61 61 60 61
45 45 46 46 47 48 49 49 51 55 58 59 60 60 60 61 61 60 60 60 60 59 59 59 59 58 51 48 50 52 59 61 61 62 62 61 61 61 60 60 60 60
44 45 45 45 46 46 47 48 49 50 52 55 59 60 60 61 61 60 60 60 60 59 59 59 59 51 46 47 47 48 53 60 61 61 62 61 61 60 60 59 59 59
44 44 44 44 45 45 46 46 47 47 48 49 51 56 60 59 59 59 59 59 59 58 58 58 56 44 43 45 46 46 48 55 59 60 60 60 60 60 58 58 58 57
43 44 44 44 44 44 44 44 45 45 47 48 49 50 53 57 58 58 57 56 57 56 57 55 52 42 40 42 43 44 45 51 58 59 59 59 59 59 58 57 57 56
43 43 44 43 43 43 44 43 44 44 45 45 46 46 46 48 50 52 53 53 53 53 52 51 48 40 40 41 42 43 45 51 58 58 57 57 57 57 57 57 57 56
43 43 44 43 43 43 43 43 43 44 44 45 45 45 45 45 46 47 48 48 49 50 49 48 47 39 40 41 42 44 46 53 54 53 52 52 52 52 53 54 55 55
43 43 43 43 42 42 42 42 43 43 44 44 44 44 44 44 44 44 45 46 47 47 46 45 44 40 40 41 42 43 47 50 49 47 47 48 47 47 48 50 52 53
43 43 43 43 42 42 42 42 43 43 43 43 43 43 43 43 44 44 44 45 45 45 44 44 43 41 39 40 42 43 46 47 46 45 44 44 44 45 46 47 47 46
43 43 44 43 42 43 43 43 43 42 43 43 43 43 42 43 43 43 43 43 44 44 44 43 42 41 38 38 39 41 46 46 43 42 41 41 41 42 42 43 43 42
43 43 44 44 44 43 43 43 43 43 43 43 43 43 43 44 43 42 42 42 42 42 42 42 41 41 40 38 38 38 39 46 43 42 40 40 40 40 41 42 42 41